Location: Ladd Observatory
(41.8387°N, 71.3996°W)
Time: 23:31:02
(UTC-04:00)

ISS - Visible Passes

Search period start: 29 July 2016 00:00
Search period end: 08 August 2016 00:00
Orbit: 401 x 404 km, 51.6° (Epoch: 29 July)

Date Brightness Start Highest point End Pass type
(mag) Time Alt. Az. Time Alt. Az. Time Alt. Az.
29 Jul -0.1 00:36:51 10° NNW 00:38:13 15° N 00:38:13 15° N visible
29 Jul -0.9 22:05:37 10° WNW 22:08:21 24° NNW 22:11:06 10° NE visible
29 Jul -0.2 23:43:42 10° NW 23:45:38 15° N 23:46:46 13° NNE visible
30 Jul -1.6 21:12:13 10° W 21:15:16 35° NNW 21:18:18 10° NE visible
30 Jul -0.2 22:50:21 10° NW 22:52:24 15° N 22:54:27 10° NNE visible
31 Jul 0.0 00:27:23 10° NNW 00:27:59 13° NNW 00:27:59 13° NNW visible
31 Jul -0.4 21:56:52 10° WNW 21:59:11 18° NNW 22:01:30 10° NNE visible
31 Jul -0.4 23:34:28 10° NNW 23:36:33 16° N 23:36:40 16° N visible
01 Aug -0.8 21:03:21 10° WNW 21:06:01 22° NNW 21:08:40 10° NE visible
01 Aug -0.3 22:41:23 10° NW 22:43:19 15° N 22:45:14 10° NE visible
02 Aug 0.1 00:17:46 10° NW 00:17:58 11° NW 00:17:58 11° NW visible
02 Aug -0.4 21:48:05 10° NW 21:50:04 15° N 21:52:03 10° NNE visible
02 Aug -0.5 23:24:57 10° NNW 23:26:41 18° N 23:26:41 18° N visible
03 Aug -0.5 20:54:36 10° NW 20:56:50 17° N 20:59:04 10° NNE visible
03 Aug -0.7 22:32:03 10° NNW 22:34:13 16° N 22:35:26 14° NE visible
04 Aug -0.5 21:39:00 10° NW 21:40:58 15° N 21:42:56 10° NE visible
04 Aug -0.6 23:15:18 10° NW 23:16:46 20° NNW 23:16:46 20° NNW visible
05 Aug -0.5 20:45:45 10° NW 20:47:43 15° N 20:49:40 10° NE visible
05 Aug -1.2 22:22:29 10° NW 22:25:03 21° NNE 22:25:33 20° NNE visible
06 Aug -0.8 21:29:36 10° NNW 21:31:51 17° N 21:34:04 10° NE visible
06 Aug -0.7 23:05:39 10° NW 23:06:55 21° NW 23:06:55 21° NW visible
07 Aug -0.6 20:36:36 10° NNW 20:38:36 15° N 20:40:35 10° NE visible
07 Aug -1.9 22:12:48 10° NW 22:15:45 31° NNE 22:15:45 31° NNE visible
